Regional Weather Roundup
Issued by NWS

Home | Current Version | Previous Version | Text Only | Print | Product List | Glossary Off
Versions: 1 2 3 4 5 6 7 8 9 10 11 12 13 14 15 16 17 18 19 20 21 22 23 24 25 26 27 28 29 30 31 32 33 34 35 36 37 38 39 40 41 42 43 44 45 46 47 48 49 50

000
ASUS43 KIND 021809
RWRIN

WEATHER ROUNDUP FOR INDIANA
NATIONAL WEATHER SERVICE INDIANAPOLIS IN
200 PM EDT SUN AUG 02 2015

NOTE: "FAIR" INDICATES FEW OR NO CLOUDS BELOW 12,000 FEET WITH NO
SIGNIFICANT WEATHER AND/OR OBSTRUCTIONS TO VISIBILITY.

* - STATION DOES NOT REPORT WEATHER SUCH AS PRECIPITATION OR FOG.

+ - STATION NOT QUALITY CONTROLLED BY THE NATIONAL WEATHER SERVICE.
    USE DATA WITH CAUTION...ESPECIALLY DEWPOINT AND RELATIVE
    HUMIDITY OBSERVATIONS.

INZ001>003-010>013-019-020-021900-
NORTHWEST INDIANA

CITY           SKY/WX    TMP DP  RH WIND       PRES   REMARKS
GARY /AIRPORT/ MOSUNNY   90  63  40 SW21G37   29.81F
KNOX *+        SUNNY     88  66  48 SW14      29.83F
LA PORTE +     SUNNY     90  69  48 SW14G23   29.84F
6HR MIN TEMP:  68; 6HR MAX TEMP:  90;

MICHIGAN CITY+ SUNNY     88  64  45 SW16G25   29.82F
MONTICELLO +   SUNNY     86  72  62 SW18G24   29.88F
6HR MIN TEMP:  66; 6HR MAX TEMP:  87;

RENSSELAER +   SUNNY     88  72  58 SW13G21   29.86F
VALPARAISO     SUNNY     91  68  46 SW22G29   29.84F HX  95
6HR MIN TEMP:  69; 6HR MAX TEMP:  91;


$$

LMZ046-743>745-021900-
SOUTHERN LAKE MICHIGAN

STATION/POSITION TIME  TEMP    WIND        PRES    WAVE
                       AIR SEA DIR/SP/G            HT
                 (UTC) (F)     (DEG/KT/KT) (MB)    (FT)
BURNS HARBOR     1727   86     230/ 16/ 26 1009.5F
MICHIGAN CITY    1700   83     200/ 19/ 24   N/A
5NW MICH CITY    1800   80 74  250/ 10/ 14   N/A     3

$$

INZ004-005-014>016-021>024-021900-
NORTH CENTRAL INDIANA

CITY           SKY/WX    TMP DP  RH WIND       PRES   REMARKS
ELKHART        SUNNY     90  66  45 SW14G26   29.84F
GOSHEN         SUNNY     87  69  54 SW20G26   29.84F
6HR MIN TEMP:  67; 6HR MAX TEMP:  87;

LOGANSPORT +   SUNNY     86  63  45 SW16G22   29.90F
PERU/GRISSOM   SUNNY     87  67  52 SW15G23   29.88F
6HR MIN TEMP:  68; 6HR MAX TEMP:  87;

ROCHESTER +    SUNNY     88  70  55 SW15G22   29.88F
SOUTH BEND     SUNNY     90  66  45 SW21G28   29.83F
6HR MIN TEMP:  68; 6HR MAX TEMP:  90;

WARSAW +       SUNNY     86  68  54 SW10G18   29.86F

$$

INZ006>009-017-018-025>027-021900-
NORTHEAST INDIANA

CITY           SKY/WX    TMP DP  RH WIND       PRES   REMARKS
ANGOLA *+      SUNNY     88  82  84 W12       29.85F HX 108
AUBURN +       SUNNY     86  61  42 SW9G18    29.87F
FORT WAYNE     MOSUNNY   88  64  44 SW18      29.89F
6HR MIN TEMP:  67; 6HR MAX TEMP:  88;

HUNTINGTON +   SUNNY     85  64  49 SW14G20   29.89F
6HR MIN TEMP:  67; 6HR MAX TEMP:  85;


$$

INZ028-029-035-036-043>045-051>053-021900-
WEST CENTRAL INDIANA

CITY           SKY/WX    TMP DP  RH WIND       PRES   REMARKS
CRAWFORDSVL +  SUNNY     83  66  56 S12         N/A
6HR MIN TEMP:  64; 6HR MAX TEMP:  83;

GREENCASTLE +  SUNNY     82  64  54 S7        29.95S
LAFAYETTE      SUNNY     86  72  62 SW12G17   29.88F
6HR MIN TEMP:  66; 6HR MAX TEMP:  86;

TERRE HAUTE    SUNNY     88  69  53 SW12G20   29.93F
6HR MIN TEMP:  65; 6HR MAX TEMP:  88;


$$

INZ030>032-037>040-046>048-054>057-064-065-021900-
CENTRAL INDIANA

CITY           SKY/WX    TMP DP  RH WIND       PRES   REMARKS
COLUMBUS       SUNNY     86  50  28 SW7       29.96F
FRANKFORT +    SUNNY     86  71  61 SW12      29.93F
6HR MIN TEMP:  65; 6HR MAX TEMP:  86;

GREENWOOD *+   SUNNY     84  63  48 W9        29.96F
INDIANAPOLIS   MOSUNNY   85  66  53 SW13      29.94F
6HR MIN TEMP:  67; 6HR MAX TEMP:  86;

-EAGLE CREEK   SUNNY     85  66  53 SW8       29.93F
6HR MIN TEMP:  67; 6HR MAX TEMP:  85;

KOKOMO *+      SUNNY     88  68  51 SW17      29.91F
6HR MIN TEMP:  68; 6HR MAX TEMP:  88;

MARION +       SUNNY     85  64  50 SW14G21   29.92F
MT COMFORT *+  SUNNY     84  61  45 S8        29.95F
SHELBYVILLE    SUNNY     86  67  52 SW12      29.95F
6HR MIN TEMP:  67; 6HR MAX TEMP:  86;

ZIONSVILLE +   SUNNY     85  65  51 SW9       29.94F
6HR MIN TEMP:  65; 6HR MAX TEMP:  85;


$$

INZ033-034-041-042-049-050-058-059-021900-
EAST CENTRAL INDIANA

CITY           SKY/WX    TMP DP  RH WIND       PRES   REMARKS
MUNCIE         SUNNY     84  65  52 S10       29.93F
6HR MIN TEMP:  67; 6HR MAX TEMP:  84;


$$

INZ060-061-067>069-081>083-085>088-021900-
SOUTHWEST INDIANA

CITY           SKY/WX    TMP DP  RH WIND       PRES   REMARKS
EVANSVILLE     SUNNY     88  60  38 S8        29.97F
6HR MIN TEMP:  68; 6HR MAX TEMP:  88;

HUNTINGBURG *+ SUNNY     86  63  45 SW9       29.98S
6HR MIN TEMP:  64; 6HR MAX TEMP:  86;

WASHINGTON +   SUNNY     86  59  39 SW7       29.95F
6HR MIN TEMP:  66; 6HR MAX TEMP:  86;


$$

INZ062-063-066-070>080-084-089>092-021900-
SOUTH CENTRAL AND SOUTHEAST INDIANA

CITY           SKY/WX    TMP DP  RH WIND       PRES   REMARKS
BLOOMINGTON    SUNNY     85  65  51 SW8       29.97S
6HR MIN TEMP:  64; 6HR MAX TEMP:  85;

MADISON *+     SUNNY     86  55  35 CALM      30.00F
NORTH VERNON + SUNNY     88  54  31 SW9       29.98F
SEYMOUR +      SUNNY     88  63  42 SW7       29.96F

$$




USA.gov is the U.S. government's official web portal to all federal, state and local government web resources and services.